Hourly Weather Rudniki

Today, 10 April, Saturday

Time Temperature Precipitation Wind Pressure Humidity
00:00 +6°C° 0 mm 5 mps 739 mmHg 59%
01:00 +5°C° 0 mm 5 mps 738 mmHg 61%
02:00 +5°C° 0 mm 4 mps 738 mmHg 63%
03:00 +5°C° 0 mm 4 mps 738 mmHg 65%
04:00 +5°C° 0 mm 4 mps 738 mmHg 67%
05:00 +5°C° 0 mm 4 mps 738 mmHg 67%
06:00 +6°C° 0 mm 4 mps 738 mmHg 66%
07:00 +6°C° 0 mm 4 mps 738 mmHg 66%
08:00 +8°C° 0 mm 5 mps 738 mmHg 59%
09:00 +10°C° 0 mm 6 mps 738 mmHg 53%
10:00 +13°C° 0 mm 6 mps 738 mmHg 47%
11:00 +14°C° 0 mm 7 mps 738 mmHg 45%
12:00 +15°C° 0 mm 7 mps 738 mmHg 44%
13:00 +16°C° 0 mm 7 mps 738 mmHg 42%
14:00 +15°C° 0 mm 6 mps 739 mmHg 46%
15:00 +14°C° 0 mm 6 mps 739 mmHg 51%
16:00 +14°C° 0 mm 5 mps 739 mmHg 55%
17:00 +13°C° 0 mm 4 mps 739 mmHg 59%
18:00 +12°C° 0 mm 3 mps 739 mmHg 62%
19:00 +12°C° 0 mm 2 mps 740 mmHg 66%
20:00 +11°C° 0 mm 1 mps 740 mmHg 69%
21:00 +11°C° 0 mm 1 mps 740 mmHg 73%
22:00 +9°C° 0 mm 0 mps 740 mmHg 76%
23:00 +10°C° 0 mm 1 mps 740 mmHg 76%

Tomorrow, 11 April, Sunday

Time Temperature Precipitation Wind Pressure Humidity
00:00 +9°C° 0 mm 2 mps 740 mmHg 76%
01:00 +8°C° 0 mm 2 mps 740 mmHg 75%
02:00 +8°C° 0 mm 2 mps 740 mmHg 76%
03:00 +8°C° 0 mm 3 mps 740 mmHg 76%
04:00 +8°C° 0 mm 3 mps 739 mmHg 77%
05:00 +8°C° 0 mm 3 mps 739 mmHg 74%
06:00 +9°C° 0 mm 3 mps 739 mmHg 70%
07:00 +9°C° 0 mm 3 mps 739 mmHg 67%
08:00 +11°C° 0 mm 4 mps 739 mmHg 59%
09:00 +13°C° 0 mm 5 mps 739 mmHg 51%
10:00 +15°C° 0 mm 6 mps 739 mmHg 44%
11:00 +16°C° 0 mm 6 mps 739 mmHg 43%
12:00 +16°C° 0 mm 6 mps 739 mmHg 42%
13:00 +16°C° 0 mm 6 mps 739 mmHg 41%
14:00 +16°C° 0 mm 6 mps 739 mmHg 45%
15:00 +15°C° 0 mm 5 mps 739 mmHg 48%
16:00 +14°C° 0 mm 5 mps 739 mmHg 51%
17:00 +13°C° 0.1 mm 5 mps 739 mmHg 57%
18:00 +12°C° 0.1 mm 5 mps 739 mmHg 63%
19:00 +11°C° 0.1 mm 4 mps 739 mmHg 68%
20:00 +11°C° 0 mm 4 mps 739 mmHg 70%
21:00 +11°C° 0 mm 4 mps 739 mmHg 73%
22:00 +10°C° 0 mm 5 mps 739 mmHg 75%
23:00 +11°C° 0 mm 4 mps 739 mmHg 75%

Day after tomorrow, 12 April, Monday

Time Temperature Precipitation Wind Pressure Humidity
00:00 +10°C° 0 mm 4 mps 739 mmHg 75%
01:00 +10°C° 0 mm 4 mps 738 mmHg 75%
02:00 +10°C° 0 mm 3 mps 738 mmHg 76%
03:00 +10°C° 0 mm 3 mps 738 mmHg 76%
04:00 +10°C° 0 mm 3 mps 738 mmHg 77%
05:00 +10°C° 0 mm 2 mps 738 mmHg 76%
06:00 +10°C° 0 mm 2 mps 738 mmHg 76%
07:00 +10°C° 0 mm 2 mps 738 mmHg 75%
08:00 +12°C° 0 mm 2 mps 738 mmHg 71%
09:00 +13°C° 0 mm 2 mps 738 mmHg 67%
10:00 +13°C° 0 mm 3 mps 739 mmHg 63%
11:00 +13°C° 0 mm 3 mps 739 mmHg 63%
12:00 +13°C° 0 mm 3 mps 739 mmHg 63%
13:00 +13°C° 0 mm 3 mps 739 mmHg 63%
14:00 +12°C° 0.1 mm 4 mps 739 mmHg 68%
15:00 +10°C° 0.1 mm 5 mps 739 mmHg 74%
16:00 +9°C° 0.1 mm 5 mps 740 mmHg 80%
17:00 +8°C° 0.1 mm 5 mps 740 mmHg 82%
18:00 +7°C° 0.1 mm 5 mps 741 mmHg 83%
19:00 +6°C° 0.1 mm 5 mps 741 mmHg 85%
20:00 +5°C° 0.1 mm 5 mps 741 mmHg 86%
21:00 +3°C° 0.1 mm 5 mps 742 mmHg 86%
22:00 +2°C° 0.1 mm 6 mps 742 mmHg 87%
23:00 +2°C° 0 mm 6 mps 742 mmHg 88%

13 April, Tuesday

Time Temperature Precipitation Wind Pressure Humidity
00:00 +1°C° 0 mm 6 mps 742 mmHg 90%
01:00 -1°C° 0 mm 6 mps 742 mmHg 92%
02:00 -1°C° 0.8 mm 6 mps 742 mmHg 94%
03:00 0°C° 0.8 mm 5 mps 742 mmHg 96%
04:00 -1°C° 0.8 mm 5 mps 742 mmHg 98%
05:00 -1°C° 2 mm 5 mps 742 mmHg 98%
06:00 -1°C° 2 mm 5 mps 743 mmHg 98%
07:00 -2°C° 2 mm 6 mps 743 mmHg 98%
08:00 -2°C° 1 mm 6 mps 743 mmHg 98%
09:00 -2°C° 1 mm 6 mps 744 mmHg 98%
10:00 -2°C° 1 mm 6 mps 744 mmHg 98%
11:00 -1°C° 0.2 mm 6 mps 744 mmHg 94%
12:00 -1°C° 0.2 mm 6 mps 744 mmHg 91%
13:00 +1°C° 0.2 mm 6 mps 744 mmHg 88%
14:00 +1°C° 0.1 mm 5 mps 744 mmHg 85%
15:00 +1°C° 0.1 mm 5 mps 744 mmHg 83%
16:00 +2°C° 0.1 mm 5 mps 743 mmHg 81%
17:00 +3°C° 0 mm 4 mps 744 mmHg 82%
18:00 +1°C° 0 mm 4 mps 744 mmHg 83%
19:00 +2°C° 0 mm 3 mps 744 mmHg 84%
20:00 +2°C° 0 mm 3 mps 744 mmHg 85%
21:00 +2°C° 0 mm 3 mps 743 mmHg 86%
22:00 +1°C° 0 mm 3 mps 743 mmHg 87%
23:00 +1°C° 0.1 mm 3 mps 743 mmHg 86%

14 April, Wednesday

Time Temperature Precipitation Wind Pressure Humidity
00:00 0°C° 0.1 mm 4 mps 743 mmHg 85%
01:00 0°C° 0.1 mm 4 mps 743 mmHg 83%
02:00 0°C° 0.2 mm 4 mps 743 mmHg 85%
03:00 -1°C° 0.2 mm 4 mps 743 mmHg 87%
04:00 -1°C° 0.2 mm 4 mps 743 mmHg 89%
05:00 -1°C° 0.3 mm 5 mps 743 mmHg 91%
06:00 -1°C° 0.3 mm 5 mps 743 mmHg 93%
07:00 -1°C° 0.3 mm 5 mps 742 mmHg 95%
08:00 -2°C° 0.4 mm 6 mps 742 mmHg 94%
09:00 -1°C° 0.4 mm 7 mps 742 mmHg 92%
10:00 -1°C° 0.4 mm 7 mps 742 mmHg 90%
11:00 -1°C° 0.6 mm 7 mps 742 mmHg 91%
12:00 -1°C° 0.6 mm 7 mps 742 mmHg 93%
13:00 -1°C° 0.6 mm 7 mps 741 mmHg 94%
14:00 -1°C° 1.2 mm 7 mps 741 mmHg 95%
15:00 -1°C° 1.2 mm 7 mps 741 mmHg 96%
16:00 -2°C° 1.2 mm 7 mps 740 mmHg 98%
17:00 -2°C° 1.6 mm 7 mps 740 mmHg 98%
18:00 -2°C° 1.6 mm 7 mps 740 mmHg 98%
19:00 -3°C° 1.6 mm 7 mps 740 mmHg 98%
20:00 -3°C° 2 mm 7 mps 740 mmHg 98%
21:00 -3°C° 2 mm 7 mps 740 mmHg 98%
22:00 -3°C° 2 mm 7 mps 739 mmHg 98%
23:00 -3°C° 2.2 mm 7 mps 739 mmHg 98%

15 April, Thursday

Time Temperature Precipitation Wind Pressure Humidity
00:00 -3°C° 2.2 mm 7 mps 739 mmHg 98%
01:00 -3°C° 2.2 mm 7 mps 738 mmHg 98%
02:00 -3°C° 1.7 mm 7 mps 738 mmHg 98%
03:00 -3°C° 1.7 mm 6 mps 738 mmHg 98%
04:00 -2°C° 1.7 mm 5 mps 738 mmHg 98%
05:00 -2°C° 0.7 mm 5 mps 738 mmHg 99%
06:00 -2°C° 0.7 mm 4 mps 739 mmHg 99%
07:00 -2°C° 0.7 mm 4 mps 739 mmHg 99%
08:00 -2°C° 0.4 mm 4 mps 739 mmHg 99%
09:00 -2°C° 0.4 mm 4 mps 739 mmHg 99%
10:00 -1°C° 0.4 mm 3 mps 740 mmHg 99%
11:00 -1°C° 0.3 mm 3 mps 740 mmHg 99%
12:00 0°C° 0.3 mm 3 mps 740 mmHg 99%
13:00 0°C° 0.3 mm 3 mps 741 mmHg 99%
14:00 0°C° 0.5 mm 3 mps 741 mmHg 99%
15:00 0°C° 0.5 mm 3 mps 741 mmHg 99%
16:00 0°C° 0.5 mm 3 mps 741 mmHg 99%
17:00 0°C° 0.3 mm 3 mps 742 mmHg 99%
18:00 0°C° 0.3 mm 3 mps 742 mmHg 99%
19:00 0°C° 0.3 mm 3 mps 742 mmHg 99%
20:00 0°C° 0.1 mm 3 mps 743 mmHg 99%
21:00 0°C° 0.1 mm 3 mps 743 mmHg 99%
22:00 +1°C° 0.1 mm 3 mps 743 mmHg 100%
23:00 +1°C° 0.3 mm 3 mps 743 mmHg 99%
Show more